Location: Bacharowice
(49.9333°N, 19.5833°E)
Time: 07:00:47
(UTC+00:00)

Cosmos 1862 Rocket - Pass Details

Date: 11 May 2021
Orbit: 605 x 633 km, 82.5° (Epoch: 21 June)

Event Time Altitude Azimuth Distance (km) Brightness Sun altitude
Exits shadow 22:10:38 39° 240° (WSW) 914 4.2 -21.7°
Maximum altitude 22:11:44 49° 285° (WNW) 786 4.1 -21.7°
Drops below altitude 10° 22:15:57 10° 1° (N) 1,966 7.3 -21.8°
Sets 22:18:15 0° 6° (N) 2,874 8.4 -21.8°
